CFTEB CYOO-CNC4

Flight info

Callsign CFTEB
Flight time 1h 9m
Altitude 4000
Route CYOO CYOO6
Aircraft C152/L-VGD/A

Departure

Time 2026-05-08 20:31
Airport Oshawa Executive Airport (CYOO)

Arrival

Time 2026-05-08 21:41
Airport Guelph Airport (CNC4)
Time Latitude Longitude Altitude Speed Heading
2026-05-08 20:20 43.92514 -78.89906 455 ft 0 kts 313°
2026-05-08 20:27 43.92514 -78.89907 455 ft 2 kts 313°
2026-05-08 20:28 43.92478 -78.89921 455 ft 8 kts 153°
2026-05-08 20:28 43.92409 -78.89846 455 ft 12 kts 169°
2026-05-08 20:28 43.92364 -78.89766 454 ft 12 kts 106°
2026-05-08 20:28 43.92363 -78.89727 454 ft 8 kts 13°
2026-05-08 20:29 43.92374 -78.89825 454 ft 20 kts 284°
2026-05-08 20:29 43.92432 -78.90014 456 ft 20 kts 291°
2026-05-08 20:29 43.92477 -78.90181 458 ft 17 kts 294°
2026-05-08 20:29 43.92509 -78.90324 459 ft 10 kts 251°
2026-05-08 20:30 43.92480 -78.90363 458 ft 12 kts 206°
2026-05-08 20:30 43.92428 -78.90318 456 ft 20 kts 107°
2026-05-08 20:30 43.92313 -78.89906 456 ft 67 kts 108°
2026-05-08 20:30 43.92140 -78.89252 555 ft 74 kts 116°
2026-05-08 20:31 43.91943 -78.88565 676 ft 76 kts 114°
2026-05-08 20:31 43.91766 -78.87875 887 ft 75 kts 116°
2026-05-08 20:31 43.91609 -78.87180 1058 ft 75 kts 108°
2026-05-08 20:31 43.91466 -78.86498 1223 ft 74 kts 112°
2026-05-08 20:32 43.91351 -78.85780 1416 ft 78 kts 105°
2026-05-08 20:32 43.91242 -78.85026 1568 ft 82 kts 110°
2026-05-08 20:32 43.91091 -78.84254 1743 ft 85 kts 112°
2026-05-08 20:32 43.90950 -78.83440 1914 ft 88 kts 107°
2026-05-08 20:33 43.90808 -78.82565 1946 ft 99 kts 112°
2026-05-08 20:33 43.90658 -78.81610 2001 ft 104 kts 108°
2026-05-08 20:33 43.90455 -78.80673 2123 ft 98 kts 119°
2026-05-08 20:33 43.90200 -78.79799 2213 ft 95 kts 114°
2026-05-08 20:34 43.89984 -78.78983 2415 ft 89 kts 118°
2026-05-08 20:34 43.89772 -78.78223 2589 ft 86 kts 116°
2026-05-08 20:34 43.89336 -78.76617 2872 ft 91 kts 114°
2026-05-08 20:35 43.89299 -78.75784 3115 ft 86 kts 74°
2026-05-08 20:35 43.89565 -78.75052 3275 ft 87 kts 41°
2026-05-08 20:35 43.90044 -78.74590 3393 ft 85 kts 11°
2026-05-08 20:35 43.90601 -78.74435 3535 ft 80 kts 351°
2026-05-08 20:36 43.91124 -78.74557 3649 ft 74 kts 326°
2026-05-08 20:36 43.91544 -78.74947 3732 ft 72 kts 302°
2026-05-08 20:36 43.91802 -78.75539 3797 ft 72 kts 290°
2026-05-08 20:36 43.91904 -78.75899 3840 ft 72 kts 283°
2026-05-08 20:37 43.92031 -78.76575 3881 ft 72 kts 276°
2026-05-08 20:37 43.92138 -78.77260 3934 ft 73 kts 279°
2026-05-08 20:37 43.92255 -78.77939 4006 ft 72 kts 278°
2026-05-08 20:37 43.92353 -78.78612 4076 ft 70 kts 275°
2026-05-08 20:38 43.92400 -78.79285 4130 ft 70 kts 271°
2026-05-08 20:38 43.92427 -78.79939 4190 ft 72 kts 265°
2026-05-08 20:38 43.92427 -78.80643 4210 ft 73 kts 273°
2026-05-08 20:38 43.92506 -78.81345 4254 ft 72 kts 276°
2026-05-08 20:39 43.92572 -78.82023 4314 ft 70 kts 272°
2026-05-08 20:39 43.92625 -78.82678 4412 ft 65 kts 272°
2026-05-08 20:39 43.92697 -78.83290 4489 ft 65 kts 278°
2026-05-08 20:39 43.92794 -78.83926 4522 ft 68 kts 280°
2026-05-08 20:40 43.92914 -78.84542 4574 ft 68 kts 280°
2026-05-08 20:40 43.93057 -78.85174 4630 ft 68 kts 283°
2026-05-08 20:40 43.93226 -78.85798 4671 ft 68 kts 290°
2026-05-08 20:40 43.93451 -78.86352 4749 ft 65 kts 287°
2026-05-08 20:41 43.93550 -78.86966 4795 ft 66 kts 278°
2026-05-08 20:41 43.93672 -78.87564 4854 ft 65 kts 283°
2026-05-08 20:41 43.93825 -78.88163 4912 ft 66 kts 290°
2026-05-08 20:41 43.94034 -78.88731 4983 ft 66 kts 291°
2026-05-08 20:42 43.94247 -78.89311 5038 ft 69 kts 288°
2026-05-08 20:42 43.94443 -78.89938 5077 ft 71 kts 288°
2026-05-08 20:42 43.94659 -78.90543 5113 ft 69 kts 289°
2026-05-08 20:42 43.94842 -78.91131 5187 ft 64 kts 285°
2026-05-08 20:43 43.94991 -78.91742 5147 ft 72 kts 281°
2026-05-08 20:43 43.95114 -78.92454 5119 ft 71 kts 277°
2026-05-08 20:43 43.95222 -78.93112 5142 ft 69 kts 279°
2026-05-08 20:43 43.95351 -78.93747 5185 ft 67 kts 281°
2026-05-08 20:44 43.95504 -78.94353 5221 ft 66 kts 285°
2026-05-08 20:44 43.95681 -78.94971 5215 ft 72 kts 283°
2026-05-08 20:44 43.95830 -78.95660 5159 ft 75 kts 282°
2026-05-08 20:44 43.96039 -78.96333 5079 ft 78 kts 294°
2026-05-08 20:45 43.96219 -78.97024 5031 ft 76 kts 276°
2026-05-08 20:45 43.96281 -78.97506 5015 ft 77 kts 277°
2026-05-08 20:45 43.96346 -78.98486 4974 ft 76 kts 274°
2026-05-08 20:45 43.96416 -78.99196 4971 ft 72 kts 273°
2026-05-08 20:46 43.96468 -78.99889 5003 ft 70 kts 274°
2026-05-08 20:46 43.96570 -79.00553 5006 ft 70 kts 281°
2026-05-08 20:46 43.96687 -79.01217 4958 ft 73 kts 278°
2026-05-08 20:46 43.96812 -79.01898 4999 ft 70 kts 281°
2026-05-08 20:47 43.96917 -79.02586 4902 ft 75 kts 280°
2026-05-08 20:47 43.97070 -79.03271 4856 ft 73 kts 282°
2026-05-08 20:47 43.97162 -79.03970 4788 ft 74 kts 275°
2026-05-08 20:47 43.97241 -79.04678 4720 ft 74 kts 276°
2026-05-08 20:48 43.97324 -79.05352 4775 ft 66 kts 278°
2026-05-08 20:48 43.97404 -79.05963 4811 ft 63 kts 279°
2026-05-08 20:48 43.97489 -79.06542 4864 ft 61 kts 280°
2026-05-08 20:48 43.97626 -79.07108 4907 ft 65 kts 283°
2026-05-08 20:49 43.97798 -79.07708 4909 ft 68 kts 284°
2026-05-08 20:49 43.97951 -79.08346 4882 ft 70 kts 282°
2026-05-08 20:49 43.98096 -79.09002 4850 ft 71 kts 281°
2026-05-08 20:49 43.98219 -79.09650 4898 ft 68 kts 277°
2026-05-08 20:50 43.98316 -79.10302 4906 ft 70 kts 275°
2026-05-08 20:50 43.98404 -79.10962 4942 ft 69 kts 277°
2026-05-08 20:50 43.98500 -79.11616 4958 ft 69 kts 276°
2026-05-08 20:50 43.98610 -79.12267 4970 ft 70 kts 282°
2026-05-08 20:51 43.98826 -79.12862 4992 ft 71 kts 297°
2026-05-08 20:51 43.99185 -79.13359 5028 ft 72 kts 305°
2026-05-08 20:51 43.99533 -79.13861 5039 ft 72 kts 298°
2026-05-08 20:51 43.99798 -79.14437 5086 ft 69 kts 290°
2026-05-08 20:52 43.99983 -79.15049 5138 ft 70 kts 284°
2026-05-08 20:52 44.00103 -79.15706 5180 ft 69 kts 276°
2026-05-08 20:52 44.00177 -79.16367 5215 ft 70 kts 273°
2026-05-08 20:52 44.00229 -79.17014 5315 ft 66 kts 273°
2026-05-08 20:53 44.00293 -79.17680 5258 ft 75 kts 275°
2026-05-08 20:53 44.00394 -79.18376 5289 ft 74 kts 277°
2026-05-08 20:53 44.00488 -79.19090 5255 ft 74 kts 275°
2026-05-08 20:53 44.00598 -79.19764 5267 ft 70 kts 279°
2026-05-08 20:54 44.00699 -79.20431 5246 ft 72 kts 268°
2026-05-08 20:54 44.00749 -79.21121 5244 ft 71 kts 269°
2026-05-08 20:54 44.00740 -79.21805 5249 ft 72 kts 271°
2026-05-08 20:54 44.00737 -79.22481 5271 ft 70 kts 270°
2026-05-08 20:55 44.00826 -79.23155 5248 ft 72 kts 282°
2026-05-08 20:55 44.00965 -79.23804 5272 ft 69 kts 282°
2026-05-08 20:55 44.01134 -79.24392 5341 ft 67 kts 289°
2026-05-08 20:55 44.01343 -79.24989 5316 ft 73 kts 288°
2026-05-08 20:56 44.01524 -79.25693 5143 ft 85 kts 280°
2026-05-08 20:56 44.01681 -79.26462 5075 ft 81 kts 283°
2026-05-08 20:56 44.01851 -79.27168 5128 ft 72 kts 281°
2026-05-08 20:56 44.01979 -79.27869 5047 ft 79 kts 279°
2026-05-08 20:57 44.02116 -79.28588 5025 ft 76 kts 281°
2026-05-08 20:57 44.02272 -79.29277 5025 ft 76 kts 284°
2026-05-08 20:57 44.02430 -79.29961 5024 ft 75 kts 282°
2026-05-08 20:57 44.02595 -79.30638 5041 ft 72 kts 283°
2026-05-08 20:58 44.02755 -79.31305 5024 ft 74 kts 283°
2026-05-08 20:58 44.02941 -79.31970 5028 ft 73 kts 285°
2026-05-08 20:58 44.03125 -79.32628 5032 ft 73 kts 282°
2026-05-08 20:58 44.03093 -79.33326 5040 ft 71 kts 261°
2026-05-08 20:59 44.03002 -79.34004 5033 ft 73 kts 258°
2026-05-08 20:59 44.02959 -79.34702 5033 ft 72 kts 267°
2026-05-08 20:59 44.02872 -79.35391 5019 ft 73 kts 256°
2026-05-08 20:59 44.02939 -79.36091 4979 ft 75 kts 288°
2026-05-08 21:00 44.03193 -79.36700 4988 ft 73 kts 292°
2026-05-08 21:00 44.03424 -79.37336 4965 ft 74 kts 290°
2026-05-08 21:00 44.03683 -79.37951 4992 ft 72 kts 290°
2026-05-08 21:00 44.03854 -79.38610 5007 ft 74 kts 283°
2026-05-08 21:01 44.04075 -79.39240 5008 ft 71 kts 292°
2026-05-08 21:01 44.04345 -79.39821 5027 ft 69 kts 295°
2026-05-08 21:01 44.04560 -79.40436 4972 ft 72 kts 284°
2026-05-08 21:01 44.04787 -79.41063 4952 ft 73 kts 293°
2026-05-08 21:02 44.05043 -79.41653 4921 ft 73 kts 292°
2026-05-08 21:02 44.05284 -79.42269 4905 ft 72 kts 290°
2026-05-08 21:02 44.05519 -79.42888 4861 ft 73 kts 290°
2026-05-08 21:02 44.05702 -79.43522 4874 ft 69 kts 281°
2026-05-08 21:03 44.05818 -79.44183 4802 ft 73 kts 279°
2026-05-08 21:03 44.05931 -79.44855 4806 ft 68 kts 276°
2026-05-08 21:03 44.05982 -79.45542 4747 ft 74 kts 272°
2026-05-08 21:03 44.06054 -79.46227 4762 ft 71 kts 277°
2026-05-08 21:04 44.06171 -79.46868 4772 ft 70 kts 280°
2026-05-08 21:04 44.06291 -79.47519 4801 ft 67 kts 282°
2026-05-08 21:04 44.06442 -79.48115 4807 ft 67 kts 282°
2026-05-08 21:04 44.06618 -79.48714 4800 ft 69 kts 290°
2026-05-08 21:05 44.06768 -79.49329 4840 ft 65 kts 271°
2026-05-08 21:05 44.06699 -79.49979 4847 ft 70 kts 255°
2026-05-08 21:05 44.06518 -79.50585 4915 ft 69 kts 245°
2026-05-08 21:05 44.06310 -79.51181 4983 ft 68 kts 248°
2026-05-08 21:06 44.06091 -79.51769 5012 ft 70 kts 243°
2026-05-08 21:06 44.05833 -79.52349 5055 ft 70 kts 242°
2026-05-08 21:06 44.05555 -79.52912 5102 ft 71 kts 235°
2026-05-08 21:06 44.05233 -79.53424 5153 ft 69 kts 236°
2026-05-08 21:07 44.04946 -79.53964 5198 ft 68 kts 242°
2026-05-08 21:07 44.04710 -79.54534 5197 ft 71 kts 245°
2026-05-08 21:07 44.04465 -79.55121 5269 ft 70 kts 240°
2026-05-08 21:07 44.04178 -79.55696 5339 ft 70 kts 239°
2026-05-08 21:08 44.03856 -79.56234 5350 ft 76 kts 231°
2026-05-08 21:08 44.03534 -79.56777 5377 ft 72 kts 241°
2026-05-08 21:08 44.03268 -79.57378 5372 ft 75 kts 241°
2026-05-08 21:08 44.02995 -79.58020 5339 ft 75 kts 245°
2026-05-08 21:09 44.02770 -79.58680 5277 ft 77 kts 250°
2026-05-08 21:09 44.02620 -79.59396 5207 ft 78 kts 256°
2026-05-08 21:09 44.02524 -79.60128 5138 ft 77 kts 260°
2026-05-08 21:09 44.02419 -79.60857 5062 ft 79 kts 259°
2026-05-08 21:10 44.02394 -79.61617 4972 ft 80 kts 273°
2026-05-08 21:10 44.02440 -79.62383 4893 ft 83 kts 263°
2026-05-08 21:10 44.02290 -79.63126 4885 ft 79 kts 247°
2026-05-08 21:10 44.02061 -79.63818 4850 ft 78 kts 251°
2026-05-08 21:11 44.01899 -79.64534 4860 ft 77 kts 251°
2026-05-08 21:11 44.01762 -79.65243 4809 ft 78 kts 272°
2026-05-08 21:11 44.01800 -79.66001 4820 ft 74 kts 269°
2026-05-08 21:11 44.01823 -79.66754 4797 ft 76 kts 270°
2026-05-08 21:12 44.01789 -79.67488 4813 ft 79 kts 265°
2026-05-08 21:12 44.01673 -79.68237 4826 ft 79 kts 258°
2026-05-08 21:12 44.01492 -79.68951 4874 ft 78 kts 253°
2026-05-08 21:12 44.01283 -79.69642 4908 ft 79 kts 252°
2026-05-08 21:13 44.01089 -79.70366 4911 ft 81 kts 254°
2026-05-08 21:13 44.00898 -79.71090 4925 ft 80 kts 253°
2026-05-08 21:13 44.00678 -79.71785 4985 ft 78 kts 249°
2026-05-08 21:13 44.00457 -79.72466 5009 ft 78 kts 256°
2026-05-08 21:14 44.00306 -79.73165 5052 ft 77 kts 258°
2026-05-08 21:14 44.00158 -79.73894 5038 ft 80 kts 256°
2026-05-08 21:14 43.99951 -79.74593 5077 ft 77 kts 248°
2026-05-08 21:14 43.99721 -79.75275 5083 ft 79 kts 250°
2026-05-08 21:15 43.99466 -79.75946 5112 ft 78 kts 248°
2026-05-08 21:15 43.99232 -79.76630 5137 ft 79 kts 250°
2026-05-08 21:15 43.98968 -79.77300 5201 ft 78 kts 245°
2026-05-08 21:15 43.98703 -79.77972 5245 ft 81 kts 249°
2026-05-08 21:16 43.98465 -79.78665 5369 ft 77 kts 253°
2026-05-08 21:16 43.98310 -79.79381 5387 ft 81 kts 258°
2026-05-08 21:16 43.98130 -79.80102 5483 ft 78 kts 254°
2026-05-08 21:16 43.97926 -79.80794 5581 ft 77 kts 258°
2026-05-08 21:17 43.97721 -79.81518 5586 ft 87 kts 249°
2026-05-08 21:17 43.97434 -79.82331 5462 ft 97 kts 250°
2026-05-08 21:17 43.97187 -79.83215 5252 ft 98 kts 256°
2026-05-08 21:17 43.96997 -79.84043 5041 ft 85 kts 256°
2026-05-08 21:18 43.96807 -79.84832 4957 ft 83 kts 256°
2026-05-08 21:18 43.96615 -79.85581 4916 ft 81 kts 255°
2026-05-08 21:18 43.96419 -79.86287 4947 ft 75 kts 254°
2026-05-08 21:18 43.96256 -79.86952 4954 ft 74 kts 255°
2026-05-08 21:19 43.96084 -79.87633 4934 ft 74 kts 258°
2026-05-08 21:19 43.95958 -79.88324 4917 ft 75 kts 259°
2026-05-08 21:19 43.95827 -79.89030 4891 ft 75 kts 263°
2026-05-08 21:19 43.95731 -79.89733 4911 ft 74 kts 257°
2026-05-08 21:20 43.95524 -79.90397 4899 ft 77 kts 250°
2026-05-08 21:20 43.95302 -79.91065 4898 ft 74 kts 252°
2026-05-08 21:20 43.95093 -79.91710 4862 ft 76 kts 251°
2026-05-08 21:20 43.94888 -79.92377 4842 ft 74 kts 253°
2026-05-08 21:21 43.94732 -79.93064 4838 ft 74 kts 262°
2026-05-08 21:21 43.94673 -79.93766 4845 ft 75 kts 260°
2026-05-08 21:21 43.94525 -79.94446 4878 ft 72 kts 255°
2026-05-08 21:21 43.94365 -79.95107 4881 ft 71 kts 257°
2026-05-08 21:22 43.94244 -79.95763 4875 ft 71 kts 262°
2026-05-08 21:22 43.94109 -79.96438 4840 ft 72 kts 253°
2026-05-08 21:22 43.93899 -79.97074 4838 ft 73 kts 250°
2026-05-08 21:22 43.93682 -79.97692 4848 ft 72 kts 254°
2026-05-08 21:23 43.93539 -79.98340 4901 ft 69 kts 258°
2026-05-08 21:23 43.93372 -79.98945 5039 ft 61 kts 251°
2026-05-08 21:23 43.93206 -79.99516 5148 ft 66 kts 251°
2026-05-08 21:23 43.93014 -80.00155 5168 ft 76 kts 250°
2026-05-08 21:24 43.92756 -80.00767 5315 ft 72 kts 243°
2026-05-08 21:24 43.92452 -80.01299 5440 ft 71 kts 237°
2026-05-08 21:24 43.92099 -80.01804 5476 ft 75 kts 233°
2026-05-08 21:24 43.91746 -80.02352 5360 ft 88 kts 238°
2026-05-08 21:25 43.91392 -80.03092 5236 ft 88 kts 246°
2026-05-08 21:25 43.91082 -80.03837 5148 ft 89 kts 244°
2026-05-08 21:25 43.90774 -80.04592 5044 ft 88 kts 246°
2026-05-08 21:25 43.90519 -80.05356 4975 ft 88 kts 250°
2026-05-08 21:26 43.90163 -80.06052 4914 ft 92 kts 230°
2026-05-08 21:26 43.89680 -80.06646 4816 ft 93 kts 226°
2026-05-08 21:26 43.89123 -80.06986 4881 ft 88 kts 201°
2026-05-08 21:26 43.88519 -80.06975 4968 ft 87 kts 184°
2026-05-08 21:27 43.87921 -80.06814 5012 ft 89 kts 180°
2026-05-08 21:27 43.87331 -80.06774 5085 ft 84 kts 192°
2026-05-08 21:27 43.86761 -80.06788 5173 ft 83 kts 192°
2026-05-08 21:27 43.86184 -80.06743 5237 ft 85 kts 184°
2026-05-08 21:28 43.85602 -80.06547 5310 ft 82 kts 186°
2026-05-08 21:28 43.85023 -80.06488 5314 ft 89 kts 188°
2026-05-08 21:28 43.84375 -80.06533 5209 ft 92 kts 203°
2026-05-08 21:28 43.83749 -80.06737 5160 ft 94 kts 205°
2026-05-08 21:29 43.83105 -80.06904 5130 ft 94 kts 201°
2026-05-08 21:29 43.82464 -80.07062 5086 ft 94 kts 202°
2026-05-08 21:29 43.81833 -80.07219 5121 ft 89 kts 199°
2026-05-08 21:29 43.81197 -80.07332 5057 ft 95 kts 197°
2026-05-08 21:30 43.80553 -80.07428 5085 ft 91 kts 194°
2026-05-08 21:30 43.79894 -80.07435 5042 ft 96 kts 191°
2026-05-08 21:30 43.79253 -80.07520 5037 ft 89 kts 202°
2026-05-08 21:30 43.78663 -80.07659 5101 ft 86 kts 200°
2026-05-08 21:31 43.78086 -80.07874 5091 ft 88 kts 205°
2026-05-08 21:31 43.77502 -80.08056 5136 ft 84 kts 202°
2026-05-08 21:31 43.76903 -80.08198 5093 ft 94 kts 195°
2026-05-08 21:31 43.76247 -80.08279 5019 ft 99 kts 197°
2026-05-08 21:32 43.75603 -80.08581 4873 ft 95 kts 218°
2026-05-08 21:32 43.75042 -80.09076 4670 ft 97 kts 225°
2026-05-08 21:32 43.74507 -80.09678 4461 ft 100 kts 227°
2026-05-08 21:32 43.73965 -80.10264 4311 ft 99 kts 225°
2026-05-08 21:33 43.73425 -80.10833 4151 ft 97 kts 227°
2026-05-08 21:33 43.72896 -80.11435 3934 ft 99 kts 228°
2026-05-08 21:33 43.72385 -80.12095 3688 ft 100 kts 232°
2026-05-08 21:33 43.71902 -80.12738 3664 ft 93 kts 230°
2026-05-08 21:34 43.71431 -80.13297 3662 ft 88 kts 227°
2026-05-08 21:34 43.70949 -80.13822 3607 ft 88 kts 223°
2026-05-08 21:34 43.70389 -80.14273 3438 ft 95 kts 217°
2026-05-08 21:34 43.69807 -80.14701 3278 ft 97 kts 214°
2026-05-08 21:35 43.69203 -80.15115 3163 ft 98 kts 214°
2026-05-08 21:35 43.68514 -80.15405 2911 ft 107 kts 198°
2026-05-08 21:35 43.67773 -80.15468 2712 ft 109 kts 185°
2026-05-08 21:35 43.67018 -80.15214 2503 ft 113 kts 168°
2026-05-08 21:36 43.66298 -80.14829 2425 ft 110 kts 165°
2026-05-08 21:36 43.65613 -80.14312 2372 ft 109 kts 155°
2026-05-08 21:36 43.64977 -80.13887 2422 ft 99 kts 171°
2026-05-08 21:36 43.64293 -80.13655 2373 ft 105 kts 178°
2026-05-08 21:37 43.63584 -80.13513 2307 ft 102 kts 182°
2026-05-08 21:37 43.62865 -80.13369 2238 ft 102 kts 189°
2026-05-08 21:37 43.62205 -80.13559 2260 ft 90 kts 207°
2026-05-08 21:37 43.61619 -80.13816 2201 ft 89 kts 210°
2026-05-08 21:38 43.61043 -80.14184 2176 ft 90 kts 222°
2026-05-08 21:38 43.60517 -80.14597 2246 ft 85 kts 219°
2026-05-08 21:38 43.59985 -80.14965 2294 ft 85 kts 221°
2026-05-08 21:38 43.59429 -80.15329 2365 ft 90 kts 216°
2026-05-08 21:39 43.58870 -80.15741 2309 ft 87 kts 223°
2026-05-08 21:39 43.58392 -80.16230 2222 ft 85 kts 229°
2026-05-08 21:39 43.57972 -80.16764 2137 ft 81 kts 236°
2026-05-08 21:39 43.57617 -80.17349 1916 ft 77 kts 240°
2026-05-08 21:40 43.57271 -80.17895 1667 ft 77 kts 234°
2026-05-08 21:40 43.56893 -80.18401 1424 ft 75 kts 231°
2026-05-08 21:40 43.56522 -80.18918 1185 ft 70 kts 230°
2026-05-08 21:41 43.56053 -80.19581 1101 ft 22 kts 219°
2026-05-08 21:41 43.56058 -80.19629 1101 ft 8 kts 16°
2026-05-08 21:41 43.56128 -80.19537 1100 ft 18 kts 44°
2026-05-08 21:41 43.56206 -80.19424 1103 ft 14 kts 54°
2026-05-08 21:42 43.56246 -80.19427 1102 ft 5 kts 315°
2026-05-08 21:42 43.56287 -80.19486 1103 ft 9 kts 313°
2026-05-08 21:42 43.56325 -80.19471 1102 ft 7 kts 43°
2026-05-08 21:42 43.56334 -80.19461 1102 ft 0 kts 44°